Location: Carri�res
(48.9069°N, 2.1792°E)
Time: 23:18:07
(UTC+00:00)

SJ-11-01 - Pass Details

Date: 15 May 2021
Orbit: 684 x 701 km, 98.0° (Epoch: 18 June)

Event Time Altitude Azimuth Distance (km) Brightness Sun altitude
Rises 20:04:33 0° 222° (SW) 3,059 7.7 -5.9°
Reaches altitude 10° 20:08:33 10° 256° (WSW) 2,146 7.4 -6.4°
Maximum altitude 20:10:00 11° 274° (W) 2,060 7.7 -6.6°
Drops below altitude 10° 20:11:27 10° 293° (WNW) 2,148 8.3 -6.8°
Sets 20:15:29 0° 327° (NNW) 3,068 9.4 -7.3°
